Flag for Norway Weather past 2 weeks in Mo i Rana, Norway

28 °F

Snow flurries. Passing clouds.

Feels Like: 28 °F
Forecast: 37 / 41 °F
Wind: 2 mph from North

Location: Mo I Rana / Rossvoll

Current Time: Nov 26, 2015 at 1:31:25 AM

Latest Report: Nov 25, 2015 at 10:50 PM

Visibility: 6 mi

Pressure: 29.21 "Hg

Humidity: 93%

Dew point: 27 °F

Location of Mo i RanaLocation

Historic Weather in Mo i Rana — Graph


Mo i Rana temperature yesterday

Maximum temperature yesterday: 32 °F (at 8:50 AM)
Minimum temperature yesterday: 27 °F (at 4:20 PM)
Average temperature yesterday: 29 °F

Past Weeks' High & Low Weather Summary

High39 °F (Nov 13, 11:50 AM)100% (Nov 11, 5:50 AM)29.77 "Hg (Nov 11, 5:50 AM)
Low9 °F (Nov 22, 9:50 AM)47% (Nov 22, 7:20 PM)29.15 "Hg (Nov 25, 6:50 AM)
Average28 °F87%29.45 "Hg
* Reported Nov 11 5:50 AM — Nov 25 10:50 PM, Mo i Rana, Weather by CustomWeather, © 2015

Note: Actual official high and low records may vary slightly from our data, if they occured in-between our weather recording intervals... More about our weather records


Mo i Rana weather history for previous 24 hours

Time TempWeatherWind HumidityBarometerVisibility
10:50 PM
Wed, Nov 25
28 °FSnow flurries. Passing clouds.2 mph93%29.21 "Hg6 mi
10:20 PM28 °FSnow showers. Ice fog.2 mph93%29.21 "Hg3 mi
9:50 PM28 °FPartly cloudy.2 mph93%29.18 "HgN/A
9:20 PM28 °FPartly cloudy.2 mph93%29.21 "HgN/A
8:50 PM28 °FPartly cloudy.3 mph93%29.21 "HgN/A
8:20 PM27 °FSnow flurries. Partly cloudy.2 mph100%29.21 "HgN/A
7:50 PM28 °FSnow flurries. Partly cloudy.2 mph93%29.21 "HgN/A
7:20 PM28 °FSnow flurries. Partly cloudy.2 mph93%29.21 "Hg6 mi
6:50 PM28 °FSnow flurries. Partly cloudy.2 mph93%29.21 "HgN/A
5:50 PM28 °FLight mixture of precip. Partly cloudy.2 mph93%29.18 "HgN/A
5:20 PM28 °FSnow flurries. Ice fog.2 mph93%29.18 "Hg4 mi
4:50 PM27 °FPartly cloudy.2 mph100%29.18 "HgN/A
4:20 PM27 °FPartly cloudy.3 mph100%29.18 "HgN/A
3:50 PM28 °FPartly cloudy.3 mph93%29.18 "HgN/A
2:50 PM28 °FPartly cloudy.3 mph93%29.18 "HgN/A
1:50 PM28 °FBroken clouds.2 mph93%29.21 "HgN/A
1:20 PM28 °FSnow flurries. Broken clouds.3 mph100%29.21 "HgN/A
12:50 PM28 °FSnow flurries. Ice fog.5 mph93%29.21 "Hg2 mi
12:20 PM30 °FSnow flurries. Ice fog.3 mph93%29.18 "Hg2 mi
11:50 AM30 °FSnow flurries. Ice fog.2 mph93%29.18 "Hg3 mi
11:20 AM32 °FScattered showers. Broken clouds.3 mph75%29.18 "HgN/A
10:50 AM32 °FBroken clouds.5 mph75%29.15 "HgN/A
10:20 AM32 °FBroken clouds.7 mph75%29.15 "HgN/A
9:50 AM32 °FBroken clouds.7 mph75%29.15 "HgN/A
9:20 AM32 °FPassing clouds.6 mph75%29.15 "HgN/A
8:50 AM32 °FPassing clouds.5 mph75%29.15 "HgN/A
7:50 AM30 °FPassing clouds.2 mph86%29.15 "HgN/A
6:50 AM28 °FPassing clouds.2 mph93%29.15 "HgN/A
6:20 AM28 °FPassing clouds.3 mph86%29.18 "HgN/A
5:50 AM28 °FPartly cloudy.2 mph86%29.18 "HgN/A
5:20 AM28 °FPassing clouds.2 mph93%29.18 "HgN/A
Weather by CustomWeather, © 2015

See weather overviewHow to use our weather pages